Overview Statistics Trail Chart Weather Telemetry Raw packets
 

This is the latest recevied weather packets stored in our database for station/object I0UVN-10. If no packets are shown the sender has not sent any weather packets the latest 10 day(s).

<< 30 31 32 33 34 >>
Time Temp. Humidity Pressure Rain* Wind** Luminosity Snow
1787773020 28.33° C 63% 1022.1 hPa - - - -
1787771820 28.33° C 65% 1021.8 hPa - - - -
1787770620 28.33° C 64% 1021.6 hPa - - - -
1787769420 28.89° C 62% 1021.1 hPa - - - -
1787768219 28.89° C 62% 1021 hPa - - - -
1787767019 28.89° C 61% 1021 hPa - - - -
1787765819 28.89° C 61% 1020.8 hPa - - - -
1787764619 29.44° C 61% 1020.7 hPa - - - -
1787763419 29.44° C 61% 1020.6 hPa - - - -
1787762218 29.44° C 60% 1020.6 hPa - - - -
1787761018 29.44° C 60% 1020.5 hPa - - - -
1787759817 29.44° C 60% 1020.6 hPa - - - -
1787758629 30° C 59% 1020.6 hPa - - - -
1787757429 30° C 59% 1020.4 hPa - - - -
1787756229 30° C 58% 1020.5 hPa - - - -
1787755029 30° C 57% 1020.5 hPa - - - -
1787753829 30° C 56% 1020.6 hPa - - - -
1787752629 30° C 55% 1020.6 hPa - - - -
1787751428 30° C 56% 1020.8 hPa - - - -
1787750307 30° C 56% 1020.8 hPa - - - -
1787750228 30° C 56% 1020.8 hPa - - - -
1787749070 30° C 53% 1020.8 hPa - - - -
1787749028 30° C 53% 1020.8 hPa - - - -
1787747824 30° C 52% 1020.8 hPa - - - -
1787746624 30° C 53% 1020.9 hPa - - - -

* Rain since midnight (hover to see other rain measurements)
** Current wind speed in m/s (hover to see current wind gust speed)